This demonstration page uses our WeatherBlox Daily Observations layout. Learn more.

Left ArrowRight Arrow

Hourly Observations for June 4, 2021

Temp ( °F °C ) Dew Point ( °F °C ) Humidity (%) Winds ( mph kmh ) Pressure ( in mb ) Visibility ( mi km ) Precip ( " mm )
12:51 am 00:51 Clear 81 27.2 29 -1.7 15 15 NW 10 17 29.75 1007 10 16 N/A
1:51 am 01:51 Clear 80 26.7 28 -2.2 15 15 NNW 13 20 29.74 1007 10 16 N/A
2:51 am 02:51 Clear 80 26.7 28 -2.2 15 15 NW 14 22 29.74 1007 10 16 N/A
3:51 am 03:51 Clear 80 26.7 27 -2.8 14 14 NW 9 15 29.74 1007 10 16 N/A
4:51 am 04:51 Clear 81 27.2 25 -3.9 13 13 NW 9 15 29.75 1008 10 16 N/A
5:51 am 05:51 Sunny 80 26.7 20 -6.7 10 10 NW 12 19 29.78 1008 10 16 N/A
6:51 am 06:51 Sunny 82 27.8 20 -6.7 10 10 NW 9 15 29.81 1009 10 16 N/A
7:51 am 07:51 Sunny 85 29.4 23 -5 10 10 WNW 17 28 29.81 1009 10 16 N/A
8:51 am 08:51 Sunny 88 31.1 20 -6.7 8 8 NW 17 28 29.81 1009 10 16 N/A
9:51 am 09:51 Mostly Sunny 86 30 20 -6.7 9 9 NW 24 39 29.81 1009 10 16 N/A
10:51 am 10:51 Sunny 90 32.2 22 -5.6 8 8 NW 20 31 29.78 1009 10 16 N/A
11:51 am 11:51 Sunny 94 34.4 23 -5 8 8 W 18 30 29.75 1008 10 16 N/A
12:51 pm 12:51 Sunny 93 33.9 24 -4.4 8 8 WNW 16 26 29.73 1007 10 16 N/A
1:51 pm 13:51 Sunny 97 36.1 24 -4.4 7 7 WNW 18 30 29.70 1006 10 16 N/A
2:51 pm 14:51 Sunny 96 35.6 25 -3.9 8 8 WNW 22 35 29.68 1005 10 16 N/A
3:51 pm 15:51 Sunny 98 36.7 26 -3.3 8 8 W 14 22 29.66 1005 10 16 N/A
4:51 pm 16:51 Sunny 95 35 27 -2.8 9 9 NW 15 24 29.68 1005 10 16 N/A
5:51 pm 17:51 Sunny 94 34.4 28 -2.2 9 9 WNW 14 22 29.68 1005 10 16 N/A
6:51 pm 18:51 Sunny 92 33.3 25 -3.9 9 9 WNW 15 24 29.68 1005 10 16 N/A
7:51 pm 19:51 Clear 88 31.1 25 -3.9 10 10 NW 8 13 29.70 1006 10 16 N/A
8:51 pm 20:51 Clear 88 31.1 26 -3.3 10 10 NW 12 19 29.71 1006 10 16 N/A
9:51 pm 21:51 Clear 88 31.1 29 -1.7 12 12 NW 10 17 29.73 1007 10 16 N/A
10:51 pm 22:51 Clear 88 31.1 24 -4.4 10 10 NNW 12 19 29.72 1007 10 16 N/A
11:51 pm 23:51 Clear 85 29.4 23 -5 10 10 WNW 18 30 29.72 1007 10 16 N/A

Powered by AerisWeather